Powrót do katalogu

STARLINK-38048

AktywnyŁącznośćSSO
NORAD 69754·PAYLOAD·🇺🇸 United States

Wystrzelony Jul 2, 2026 z Vandenberg Space Force Base

Loading…

Następne Przeloty (najbliższe 24 godziny)

TLE

ŚwieżeSource: CelesTrak SupGP

Epoka: Sep 14, 2026, 23:23 UTC

1 69754C 26150R   26257.97479167  .00076901  00000+0  23874-2 0  2572
2 69754  97.2844  97.0005 0001781  93.7002 150.2071 15.33396088    19

Śledź STARLINK-38048 w czasie rzeczywistym z AllMySat

Download on the App Store